TimeAST,TemperatureF,Dew PointF,Humidity,Sea Level PressureIn,VisibilityMPH,Wind Direction,Wind SpeedMPH,Gust SpeedMPH,PrecipitationIn,Events,Conditions,WindDirDegrees,DateUTC
12:00 AM,80.6,75.2,84,29.92,6.2,ENE,9.2,-,N/A,,Partly Cloudy,70,2012-11-16 04:00:00
1:00 AM,80.6,73.4,79,29.89,6.2,East,9.2,-,N/A,,Partly Cloudy,80,2012-11-16 05:00:00
2:00 AM,81,74,74,29.89,10,East,6.9,,,,Scattered Clouds,90,2012-11-16 06:00:00
2:00 AM,80.6,73.4,79,29.89,6.2,East,6.9,-,N/A,Rain,Light Rain Showers,90,2012-11-16 06:00:00
3:00 AM,80.6,75.2,84,29.86,6.2,East,8.1,-,N/A,,Partly Cloudy,80,2012-11-16 07:00:00
4:00 AM,80.6,75.2,84,29.86,6.2,East,8.1,-,N/A,,Scattered Clouds,90,2012-11-16 08:00:00
5:00 AM,80,74,76,29.88,31,East,8.1,,,Rain,Light Rain Showers,100,2012-11-16 09:00:00
5:00 AM,80.6,73.4,79,29.86,6.2,East,8.1,-,N/A,,Partly Cloudy,100,2012-11-16 09:00:00
6:00 AM,78.8,73.4,83,29.89,6.2,ENE,9.2,-,N/A,Rain,Light Rain Showers,60,2012-11-16 10:00:00
7:00 AM,80.6,73.4,79,29.89,6.2,Variable,3.5,-,N/A,Rain,Light Rain Showers,0,2012-11-16 11:00:00
8:00 AM,82,74,70,29.94,8,ESE,6.9,,,,Scattered Clouds,120,2012-11-16 12:00:00
8:00 AM,82.4,73.4,74,29.92,6.2,ESE,6.9,-,N/A,Rain,Light Rain Showers,110,2012-11-16 12:00:00
9:00 AM,84.2,73.4,70,29.95,6.2,East,8.1,-,N/A,,Scattered Clouds,100,2012-11-16 13:00:00
10:00 AM,84.2,73.4,70,29.95,6.2,ESE,9.2,-,N/A,,Scattered Clouds,110,2012-11-16 14:00:00
11:00 AM,85,73,60,29.94,40,East,11.5,,,,Partly Cloudy,100,2012-11-16 15:00:00
11:00 AM,86.0,73.4,66,29.92,6.2,East,11.5,-,N/A,,Scattered Clouds,100,2012-11-16 15:00:00
12:00 PM,86.0,73.4,66,29.89,6.2,ESE,11.5,-,N/A,,Scattered Clouds,120,2012-11-16 16:00:00
1:00 PM,84.2,73.4,70,29.89,6.2,East,10.4,-,N/A,,Scattered Clouds,100,2012-11-16 17:00:00
2:00 PM,85,74,62,29.89,37,SE,10.4,,,,Partly Cloudy,130,2012-11-16 18:00:00
2:00 PM,86.0,73.4,66,29.89,6.2,SE,8.1,-,N/A,,Scattered Clouds,130,2012-11-16 18:00:00
3:00 PM,86.0,73.4,66,29.86,6.2,ESE,9.2,-,N/A,,Scattered Clouds,110,2012-11-16 19:00:00
4:00 PM,84.2,73.4,70,29.86,6.2,ESE,9.2,-,N/A,,Scattered Clouds,110,2012-11-16 20:00:00
5:00 PM,84,74,65,29.88,37,ESE,8.1,,,,Partly Cloudy,110,2012-11-16 21:00:00
5:00 PM,84.2,73.4,70,29.86,6.2,ESE,8.1,-,N/A,,Scattered Clouds,110,2012-11-16 21:00:00
6:00 PM,80.6,75.2,84,29.89,6.2,ESE,5.8,-,N/A,,Scattered Clouds,110,2012-11-16 22:00:00
7:00 PM,82.4,73.4,74,29.89,6.2,East,9.2,-,N/A,,Scattered Clouds,90,2012-11-16 23:00:00
8:00 PM,80,75,81,29.93,25,ESE,9.2,,,Rain,Light Rain Showers,110,2012-11-17 00:00:00
8:00 PM,80.6,75.2,84,29.92,6.2,ESE,9.2,-,N/A,Rain,Light Rain Showers,110,2012-11-17 00:00:00
9:00 PM,82.4,75.2,79,29.92,6.2,East,8.1,-,N/A,,Scattered Clouds,90,2012-11-17 01:00:00
10:00 PM,82.4,75.2,79,29.95,6.2,East,9.2,-,N/A,,Scattered Clouds,90,2012-11-17 02:00:00
11:00 PM,81,74,73,29.94,25,East,8.1,,,,Partly Cloudy,100,2012-11-17 03:00:00
11:00 PM,80.6,73.4,79,29.92,6.2,East,9.2,-,N/A,,Partly Cloudy,100,2012-11-17 03:00:00